Time,TemperatureF,DewpointF,PressureIn,WindDirection,WindDirectionDegrees,WindSpeedMPH,WindSpeedGustMPH,Humidity,HourlyPrecipIn,Conditions,Clouds,dailyrainin,SoftwareType,DateUTC
2013-06-16 00:01:00,73.0,70.0,29.99,SSW,212,0.0,2.0,89,0.00,,,0.03,,2013-06-16 05:01:00,
2013-06-16 00:11:00,73.0,70.0,30.00,ESE,105,0.0,2.0,90,0.00,,,0.03,,2013-06-16 05:11:00,
2013-06-16 00:22:00,73.0,70.0,30.00,ESE,105,0.0,2.0,90,0.00,,,0.03,,2013-06-16 05:22:00,
2013-06-16 00:34:00,73.0,70.0,29.99,ESE,112,0.0,0.0,91,0.00,,,0.03,,2013-06-16 05:34:00,
2013-06-16 00:43:00,73.0,70.0,29.99,ESE,116,0.0,1.0,91,0.00,,,0.03,,2013-06-16 05:43:00,
2013-06-16 00:52:00,73.0,70.0,29.99,ESE,116,0.0,1.0,91,0.00,,,0.03,,2013-06-16 05:52:00,
2013-06-16 01:01:00,72.0,70.0,29.98,SSE,162,0.0,2.0,92,0.00,,,0.03,,2013-06-16 06:01:00,
2013-06-16 01:11:00,72.0,70.0,29.98,ESE,122,0.0,1.0,93,0.00,,,0.03,,2013-06-16 06:11:00,
2013-06-16 01:22:00,72.0,70.0,29.98,ESE,122,0.0,1.0,93,0.00,,,0.03,,2013-06-16 06:22:00,
2013-06-16 01:33:00,72.0,70.0,29.97,ESE,112,0.0,2.0,93,0.00,,,0.03,,2013-06-16 06:33:00,
2013-06-16 01:43:00,71.0,69.0,29.96,South,188,0.0,1.0,93,0.00,,,0.03,,2013-06-16 06:43:00,
2013-06-16 01:52:00,71.0,69.0,29.96,South,188,0.0,1.0,93,0.00,,,0.03,,2013-06-16 06:52:00,
2013-06-16 02:01:00,71.0,69.0,29.96,SE,137,0.0,1.0,93,0.00,,,0.03,,2013-06-16 07:01:00,
2013-06-16 02:11:00,71.0,69.0,29.96,South,183,0.0,2.0,94,0.00,,,0.03,,2013-06-16 07:11:00,
2013-06-16 02:22:00,71.0,69.0,29.96,South,183,0.0,2.0,94,0.00,,,0.03,,2013-06-16 07:22:00,
2013-06-16 02:32:00,71.0,69.0,29.96,ESE,113,0.0,1.0,94,0.00,,,0.03,,2013-06-16 07:32:00,
2013-06-16 02:43:00,71.0,69.0,29.97,ESE,114,0.0,0.0,94,0.00,,,0.03,,2013-06-16 07:43:00,
2013-06-16 02:53:00,71.0,69.0,29.97,ESE,114,0.0,0.0,94,0.00,,,0.03,,2013-06-16 07:53:00,
2013-06-16 03:02:00,71.0,69.0,29.97,SSW,208,0.0,2.0,94,0.00,,,0.03,,2013-06-16 08:02:00,
2013-06-16 03:11:00,71.0,69.0,29.98,SW,226,0.0,0.0,94,0.00,,,0.03,,2013-06-16 08:11:00,
2013-06-16 03:22:00,71.0,69.0,29.98,SW,226,0.0,0.0,94,0.00,,,0.03,,2013-06-16 08:22:00,
2013-06-16 03:33:00,71.0,69.0,29.97,SW,226,0.0,0.0,94,0.00,,,0.03,,2013-06-16 08:33:00,
2013-06-16 03:43:00,70.0,68.0,29.98,SW,226,0.0,0.0,94,0.00,,,0.03,,2013-06-16 08:43:00,
2013-06-16 03:54:00,70.0,68.0,29.98,SW,226,0.0,0.0,94,0.00,,,0.03,,2013-06-16 08:54:00,
2013-06-16 04:01:00,70.0,68.0,29.99,SW,226,0.0,0.0,95,0.00,,,0.03,,2013-06-16 09:01:00,
2013-06-16 04:11:00,70.0,68.0,29.99,SW,226,0.0,0.0,95,0.00,,,0.03,,2013-06-16 09:11:00,
2013-06-16 04:22:00,70.0,68.0,29.99,SW,226,0.0,0.0,95,0.00,,,0.03,,2013-06-16 09:22:00,
2013-06-16 04:33:00,70.0,68.0,29.99,SW,226,0.0,0.0,95,0.00,,,0.03,,2013-06-16 09:33:00,
2013-06-16 04:42:00,71.0,69.0,29.99,South,183,0.0,2.0,95,0.00,,,0.03,,2013-06-16 09:42:00,
2013-06-16 04:52:00,71.0,69.0,29.99,South,183,0.0,2.0,95,0.00,,,0.03,,2013-06-16 09:52:00,
2013-06-16 05:01:00,71.0,69.0,29.99,South,172,0.0,1.0,95,0.00,,,0.03,,2013-06-16 10:01:00,
2013-06-16 05:12:00,71.0,69.0,29.99,SE,146,0.0,3.0,94,0.00,,,0.03,,2013-06-16 10:12:00,
2013-06-16 05:22:00,71.0,69.0,29.99,SE,146,0.0,3.0,94,0.00,,,0.03,,2013-06-16 10:22:00,
2013-06-16 05:33:00,71.0,69.0,30.00,SE,146,0.0,0.0,94,0.00,,,0.03,,2013-06-16 10:33:00,
2013-06-16 05:42:00,71.0,69.0,30.00,SE,146,0.0,0.0,94,0.00,,,0.03,,2013-06-16 10:42:00,
2013-06-16 05:53:00,71.0,69.0,30.00,SE,146,0.0,0.0,94,0.00,,,0.03,,2013-06-16 10:53:00,
2013-06-16 06:02:00,70.0,68.0,29.99,SE,146,0.0,0.0,94,0.00,,,0.03,,2013-06-16 11:02:00,
2013-06-16 06:11:00,70.0,68.0,29.99,SE,146,0.0,0.0,95,0.00,,,0.03,,2013-06-16 11:11:00,
2013-06-16 06:22:00,70.0,68.0,29.99,SE,146,0.0,0.0,95,0.00,,,0.03,,2013-06-16 11:22:00,
2013-06-16 06:33:00,70.0,68.0,30.00,SE,146,0.0,0.0,95,0.00,,,0.03,,2013-06-16 11:33:00,
2013-06-16 06:43:00,70.0,68.0,30.00,SE,146,0.0,0.0,95,0.00,,,0.03,,2013-06-16 11:43:00,
2013-06-16 06:52:00,70.0,68.0,30.00,SE,146,0.0,0.0,95,0.00,,,0.03,,2013-06-16 11:52:00,
2013-06-16 07:02:00,70.0,68.0,30.00,SE,146,0.0,0.0,95,0.00,,,0.03,,2013-06-16 12:02:00,
2013-06-16 07:11:00,70.0,69.0,29.99,SE,146,0.0,0.0,96,0.00,,,0.03,,2013-06-16 12:11:00,
2013-06-16 07:22:00,70.0,69.0,29.99,SE,146,0.0,0.0,96,0.00,,,0.03,,2013-06-16 12:22:00,
2013-06-16 07:32:00,71.0,70.0,30.00,SE,146,0.0,0.0,96,0.00,,,0.03,,2013-06-16 12:32:00,
2013-06-16 07:42:00,71.0,70.0,30.01,SE,146,0.0,0.0,96,0.00,,,0.03,,2013-06-16 12:42:00,
2013-06-16 07:53:00,71.0,70.0,30.01,SE,146,0.0,0.0,96,0.00,,,0.03,,2013-06-16 12:53:00,
2013-06-16 08:01:00,72.0,71.0,30.01,SSE,153,0.0,0.0,96,0.00,,,0.03,,2013-06-16 13:01:00,
2013-06-16 08:11:00,73.0,71.0,30.01,SSE,152,0.0,2.0,95,0.00,,,0.03,,2013-06-16 13:11:00,
2013-06-16 08:22:00,73.0,71.0,30.01,SSE,152,0.0,2.0,95,0.00,,,0.03,,2013-06-16 13:22:00,
2013-06-16 08:34:00,73.0,71.0,30.01,SW,236,0.0,1.0,94,0.00,,,0.03,,2013-06-16 13:34:00,
2013-06-16 08:42:00,74.0,72.0,30.02,WSW,255,0.0,1.0,93,0.00,,,0.03,,2013-06-16 13:42:00,
2013-06-16 08:53:00,74.0,72.0,30.02,WSW,255,0.0,1.0,93,0.00,,,0.03,,2013-06-16 13:53:00,
2013-06-16 09:02:00,74.0,72.0,30.01,SSW,212,0.0,1.0,92,0.00,,,0.03,,2013-06-16 14:02:00,
2013-06-16 09:12:00,76.0,73.0,30.01,West,264,1.0,4.0,89,0.00,,,0.03,,2013-06-16 14:12:00,
2013-06-16 09:22:00,76.0,73.0,30.01,West,264,1.0,4.0,89,0.00,,,0.03,,2013-06-16 14:22:00,
2013-06-16 09:34:00,77.0,72.0,30.01,WSW,243,0.0,4.0,86,0.00,,,0.03,,2013-06-16 14:34:00,
2013-06-16 09:43:00,79.0,73.0,30.00,SW,236,0.0,4.0,82,0.00,,,0.03,,2013-06-16 14:43:00,
2013-06-16 09:52:00,79.0,73.0,30.00,SW,236,0.0,4.0,82,0.00,,,0.03,,2013-06-16 14:52:00,
2013-06-16 10:02:00,80.0,74.0,29.99,WNW,282,0.0,7.0,81,0.00,,,0.03,,2013-06-16 15:02:00,
2013-06-16 10:12:00,80.0,74.0,29.99,WNW,282,0.0,7.0,81,0.00,,,0.03,,2013-06-16 15:12:00,
2013-06-16 10:23:00,81.0,74.0,30.00,NNW,345,0.0,3.0,80,0.00,,,0.03,,2013-06-16 15:23:00,
2013-06-16 10:33:00,82.0,74.0,30.00,SSW,205,1.0,4.0,77,0.00,,,0.03,,2013-06-16 15:33:00,
2013-06-16 10:43:00,82.0,74.0,30.00,SSW,205,1.0,4.0,77,0.00,,,0.03,,2013-06-16 15:43:00,
2013-06-16 10:52:00,83.0,75.0,29.99,SW,224,0.0,3.0,76,0.00,,,0.03,,2013-06-16 15:52:00,
2013-06-16 11:01:00,82.0,74.0,29.99,West,271,0.0,2.0,77,0.00,,,0.03,,2013-06-16 16:01:00,
2013-06-16 11:12:00,82.0,74.0,29.99,West,271,0.0,2.0,77,0.00,,,0.03,,2013-06-16 16:12:00,
2013-06-16 11:22:00,84.0,74.0,29.99,South,181,0.0,3.0,73,0.00,,,0.03,,2013-06-16 16:22:00,
2013-06-16 11:33:00,85.0,75.0,29.99,SW,214,0.0,4.0,71,0.00,,,0.03,,2013-06-16 16:33:00,
2013-06-16 11:43:00,85.0,75.0,29.99,SW,214,0.0,4.0,71,0.00,,,0.03,,2013-06-16 16:43:00,
2013-06-16 11:53:00,87.0,76.0,29.99,SSE,153,0.0,4.0,71,0.00,,,0.03,,2013-06-16 16:53:00,
2013-06-16 12:02:00,87.0,75.0,29.99,SSE,163,1.0,5.0,68,0.00,,,0.03,,2013-06-16 17:02:00,
2013-06-16 12:11:00,88.0,76.0,29.99,WSW,242,0.0,5.0,67,0.00,,,0.03,,2013-06-16 17:11:00,
2013-06-16 12:22:00,88.0,76.0,29.99,WSW,242,0.0,5.0,67,0.00,,,0.03,,2013-06-16 17:22:00,
2013-06-16 12:34:00,89.0,77.0,29.98,SE,127,0.0,5.0,67,0.00,,,0.03,,2013-06-16 17:34:00,
2013-06-16 12:43:00,89.0,75.0,29.99,South,187,2.0,8.0,63,0.00,,,0.03,,2013-06-16 17:43:00,
2013-06-16 12:53:00,89.0,75.0,29.99,South,187,2.0,8.0,63,0.00,,,0.03,,2013-06-16 17:53:00,
2013-06-16 13:02:00,89.0,76.0,29.98,SSW,200,1.0,4.0,65,0.00,,,0.03,,2013-06-16 18:02:00,
2013-06-16 13:12:00,89.0,76.0,29.97,East,86,0.0,4.0,65,0.00,,,0.03,,2013-06-16 18:12:00,
2013-06-16 13:22:00,89.0,76.0,29.97,East,86,0.0,4.0,65,0.00,,,0.03,,2013-06-16 18:22:00,
2013-06-16 13:33:00,89.0,77.0,29.97,SSE,154,1.0,5.0,67,0.00,,,0.03,,2013-06-16 18:33:00,
2013-06-16 13:43:00,90.0,77.0,29.96,South,169,0.0,6.0,66,0.00,,,0.03,,2013-06-16 18:43:00,
2013-06-16 13:52:00,90.0,77.0,29.96,South,169,0.0,6.0,66,0.00,,,0.03,,2013-06-16 18:52:00,
2013-06-16 14:01:00,90.0,77.0,29.96,SW,229,0.0,4.0,65,0.00,,,0.03,,2013-06-16 19:01:00,
2013-06-16 14:11:00,91.0,76.0,29.95,WSW,241,1.0,4.0,61,0.00,,,0.03,,2013-06-16 19:11:00,
2013-06-16 14:22:00,91.0,76.0,29.95,WSW,241,1.0,4.0,61,0.00,,,0.03,,2013-06-16 19:22:00,
2013-06-16 14:33:00,92.0,76.0,29.95,West,262,0.0,4.0,59,0.00,,,0.03,,2013-06-16 19:33:00,
2013-06-16 14:43:00,92.0,76.0,29.95,West,262,0.0,4.0,59,0.00,,,0.03,,2013-06-16 19:43:00,
2013-06-16 14:53:00,92.0,76.0,29.95,West,262,0.0,4.0,59,0.00,,,0.03,,2013-06-16 19:53:00,
2013-06-16 15:02:00,93.0,77.0,29.94,West,267,1.0,3.0,59,0.00,,,0.03,,2013-06-16 20:02:00,
2013-06-16 15:11:00,93.0,75.0,29.93,NW,323,1.0,3.0,57,0.00,,,0.03,,2013-06-16 20:11:00,
2013-06-16 15:22:00,93.0,75.0,29.93,NW,323,1.0,3.0,57,0.00,,,0.03,,2013-06-16 20:22:00,
2013-06-16 15:33:00,93.0,75.0,29.93,South,188,1.0,4.0,57,0.00,,,0.03,,2013-06-16 20:33:00,
2013-06-16 15:42:00,93.0,74.0,29.93,SSE,163,0.0,5.0,55,0.00,,,0.03,,2013-06-16 20:42:00,
2013-06-16 15:53:00,93.0,74.0,29.93,SSE,163,0.0,5.0,55,0.00,,,0.03,,2013-06-16 20:53:00,
2013-06-16 16:01:00,90.0,75.0,29.93,SSW,203,0.0,2.0,61,0.00,,,0.03,,2013-06-16 21:01:00,
2013-06-16 16:11:00,90.0,75.0,29.93,SSW,203,0.0,2.0,61,0.00,,,0.03,,2013-06-16 21:11:00,
2013-06-16 16:22:00,89.0,74.0,29.93,South,190,1.0,4.0,61,0.00,,,0.03,,2013-06-16 21:22:00,
2013-06-16 16:32:00,89.0,76.0,29.93,West,260,0.0,2.0,66,0.00,,,0.03,,2013-06-16 21:32:00,
2013-06-16 16:42:00,89.0,76.0,29.93,West,260,0.0,2.0,66,0.00,,,0.03,,2013-06-16 21:42:00,
2013-06-16 16:53:00,87.0,76.0,29.92,SE,131,0.0,1.0,69,0.00,,,0.03,,2013-06-16 21:53:00,
2013-06-16 17:01:00,84.0,70.0,29.93,NW,323,2.0,5.0,64,0.00,,,0.03,,2013-06-16 22:01:00,
2013-06-16 17:12:00,84.0,70.0,29.93,NW,323,2.0,5.0,64,0.00,,,0.03,,2013-06-16 22:12:00,
2013-06-16 17:22:00,81.0,73.0,29.96,ENE,65,1.0,5.0,78,0.05,,,0.08,,2013-06-16 22:22:00,
2013-06-16 17:32:00,75.0,69.0,29.98,NNW,331,1.0,6.0,82,0.59,,,0.60,,2013-06-16 22:32:00,
2013-06-16 17:42:00,75.0,69.0,29.98,NNW,331,1.0,6.0,82,0.59,,,0.60,,2013-06-16 22:42:00,
2013-06-16 17:52:00,71.0,67.0,29.97,NE,50,4.0,10.0,88,0.79,,,0.80,,2013-06-16 22:52:00,
2013-06-16 18:01:00,70.0,67.0,29.95,South,180,0.0,5.0,91,1.01,,,1.02,,2013-06-16 23:01:00,
2013-06-16 18:11:00,70.0,67.0,29.95,South,180,0.0,5.0,91,1.01,,,1.02,,2013-06-16 23:11:00,
2013-06-16 18:22:00,69.0,67.0,29.95,South,179,0.0,4.0,92,1.10,,,1.18,,2013-06-16 23:22:00,
2013-06-16 18:32:00,69.0,67.0,29.95,SW,229,0.0,2.0,93,0.65,,,1.24,,2013-06-16 23:32:00,
2013-06-16 18:42:00,69.0,67.0,29.95,SW,229,0.0,2.0,93,0.65,,,1.24,,2013-06-16 23:42:00,
2013-06-16 18:52:00,68.0,66.0,29.93,WNW,301,0.0,3.0,94,0.48,,,1.27,,2013-06-16 23:52:00,
2013-06-16 19:02:00,68.0,66.0,29.94,West,266,0.0,1.0,94,0.24,,,1.27,,2013-06-17 00:02:00,
2013-06-16 19:11:00,68.0,66.0,29.94,West,266,0.0,1.0,94,0.24,,,1.27,,2013-06-17 00:11:00,
2013-06-16 19:22:00,68.0,67.0,29.94,SE,124,0.0,0.0,95,0.10,,,1.27,,2013-06-17 00:22:00,
2013-06-16 19:32:00,68.0,67.0,29.94,SE,124,0.0,0.0,95,0.10,,,1.27,,2013-06-17 00:32:00,
2013-06-16 19:43:00,68.0,67.0,29.94,SE,124,0.0,0.0,95,0.10,,,1.27,,2013-06-17 00:43:00,
2013-06-16 19:52:00,69.0,68.0,29.94,SW,224,0.0,1.0,95,0.00,,,1.27,,2013-06-17 00:52:00,
2013-06-16 20:02:00,69.0,68.0,29.95,ESE,115,0.0,0.0,95,0.00,,,1.27,,2013-06-17 01:02:00,
2013-06-16 20:11:00,69.0,68.0,29.95,ESE,115,0.0,0.0,95,0.00,,,1.27,,2013-06-17 01:11:00,
2013-06-16 20:22:00,68.0,67.0,29.93,North,6,0.0,0.0,95,0.00,,,1.27,,2013-06-17 01:22:00,
2013-06-16 20:32:00,68.0,67.0,29.93,North,6,0.0,0.0,95,0.00,,,1.27,,2013-06-17 01:32:00,
2013-06-16 20:43:00,68.0,67.0,29.93,North,6,0.0,0.0,95,0.00,,,1.27,,2013-06-17 01:43:00,
2013-06-16 20:53:00,69.0,68.0,29.91,SE,129,1.0,4.0,96,0.00,,,1.27,,2013-06-17 01:53:00,
2013-06-16 21:02:00,68.0,67.0,29.90,SSW,202,2.0,10.0,95,0.00,,,1.27,,2013-06-17 02:02:00,
2013-06-16 21:12:00,68.0,67.0,29.90,SSW,202,2.0,10.0,95,0.00,,,1.27,,2013-06-17 02:12:00,
2013-06-16 21:22:00,68.0,66.0,29.91,South,186,0.0,6.0,94,0.00,,,1.27,,2013-06-17 02:22:00,
2013-06-16 21:34:00,68.0,66.0,29.92,SSE,147,1.0,5.0,94,0.00,,,1.27,,2013-06-17 02:34:00,
2013-06-16 21:43:00,68.0,66.0,29.92,SSE,147,1.0,5.0,94,0.00,,,1.27,,2013-06-17 02:43:00,
2013-06-16 21:53:00,68.0,67.0,29.94,WSW,239,0.0,1.0,95,0.00,,,1.27,,2013-06-17 02:53:00,
2013-06-16 22:02:00,68.0,67.0,29.95,WSW,248,0.0,0.0,95,0.00,,,1.27,,2013-06-17 03:02:00,
2013-06-16 22:12:00,68.0,67.0,29.95,WSW,248,0.0,0.0,95,0.00,,,1.27,,2013-06-17 03:12:00,
2013-06-16 22:22:00,68.0,67.0,29.96,WSW,248,0.0,0.0,96,0.00,,,1.27,,2013-06-17 03:22:00,
2013-06-16 22:33:00,68.0,67.0,29.96,West,260,0.0,0.0,96,0.00,,,1.27,,2013-06-17 03:33:00,
2013-06-16 22:44:00,68.0,67.0,29.96,West,260,0.0,0.0,96,0.00,,,1.27,,2013-06-17 03:44:00,
2013-06-16 22:54:00,68.0,67.0,29.96,SSE,158,0.0,0.0,96,0.00,,,1.27,,2013-06-17 03:54:00,
2013-06-16 23:02:00,68.0,67.0,29.97,ESE,122,0.0,3.0,96,0.00,,,1.27,,2013-06-17 04:02:00,
2013-06-16 23:12:00,68.0,67.0,29.97,ESE,122,0.0,3.0,96,0.00,,,1.27,,2013-06-17 04:12:00,
2013-06-16 23:22:00,68.0,67.0,29.97,South,186,0.0,3.0,96,0.00,,,1.27,,2013-06-17 04:22:00,
2013-06-16 23:34:00,68.0,67.0,29.97,SW,225,0.0,1.0,96,0.00,,,1.27,,2013-06-17 04:34:00,
2013-06-16 23:42:00,68.0,67.0,29.97,SW,225,0.0,1.0,96,0.00,,,1.27,,2013-06-17 04:42:00,
2013-06-16 23:53:00,68.0,67.0,29.98,WSW,250,0.0,1.0,97,0.00,,,1.27,,2013-06-17 04:53:00,